WGS F3 (USA 211)

Last updated on Mon Oct 20 2025 00:02:46 GMT+0000 (Coordinated Universal Time)

1 36108U 09068A 25292.14008998 -.00000120 00000+0 00000+0 0 9992 2 36108 0.2756 86.2886 0000553 75.1065 355.1300 1.00269242 44185
UTC large
Height (km)
Speed (km/s)
/
Latitude / Longitude
Inclination (degrees)
Orbital Period (minutes)
Azimuth
Elevation
Range (km)
Doppler Factor

Next 0 passes for location: London (51.5072 / 0.1276)

Sorry there are no passes over London.